Regional Weather Roundup
Issued by NWS

Home | Current Version | Previous Version | Graphics & Text | Print | Product List | Glossary On
Versions: 1 2 3 4 5 6 7 8 9 10 11 12 13 14 15 16 17 18 19 20 21 22 23 24 25 26 27 28
000
ASUS45 KBOI 300510
RWRID
WEATHER ROUNDUP FOR IDAHO
NATIONAL WEATHER SERVICE BOISE ID
1100 PM MDT WED OCT 29 2014

NOTE: "FAIR" INDICATES FEW OR NO CLOUDS BELOW 12000 FEET
WITH NO SIGNIFICANT WEATHER AND/OR OBSTRUCTIONS TO VISIBILITY

IDZ012-014-300600-
SOUTHWEST IDAHO


CITY           SKY/WX    TMP DP  RH WIND       PRES   REMARKS
BOISE          MOCLDY    51  41  68 CALM      30.19R
CALDWELL       MOCLDY    50  39  66 S3        30.21S
MOUNTAIN HOME  PTCLDY    50  39  67 CALM      30.20R
$$

IDZ016-017-300600-
SOUTHCENTRAL IDAHO


CITY           SKY/WX    TMP DP  RH WIND       PRES   REMARKS
BURLEY         CLEAR     43  33  68 CALM      30.24R
JEROME         MOCLDY    47  37  68 SE6       30.24R
TWIN FALLS     PTCLDY    44  35  70 S7        30.24S
$$

IDZ019>023-300600-
SOUTHEAST IDAHO


CITY           SKY/WX    TMP DP  RH WIND       PRES   REMARKS
IDAHO FALLS    PTCLDY    49  35  58 S9        30.25S
POCATELLO      CLOUDY    52  31  44 SW7       30.26R
REXBURG        MOCLDY    36  28  73 NE6       30.25S WCI  31
$$

IDZ006-010-011-018-031-032-300600-
CENTRAL IDAHO MOUNTAINS


CITY           SKY/WX    TMP DP  RH WIND       PRES   REMARKS
MCCALL         FLURRIES  38  35  89 CALM      30.22S
HAILEY         PTCLDY    45  27  49 NW12      30.29R
STANLEY          N/A     37  28  70 S3        30.31R
SALMON         PTCLDY    37  32  81 CALM      30.24R
CHALLIS        PTCLDY    42  30  62 CALM      30.27R
$$

IDZ002-004-006-007-026-300600-
NORTHERN IDAHO


CITY           SKY/WX    TMP DP  RH WIND       PRES   REMARKS
LEWISTON       PTCLDY    51  46  83 E3        30.16S
LOWELL           N/A     49  47  93 CALM      30.25R
COEUR D`ALENE  CLOUDY    46  45  93 NE7       30.19S VSB 3/4
MULLAN PASS    FOG       36  35  96 S5        30.23S VSB 1/2 WCI  32
$$



USA.gov is the U.S. government's official web portal to all federal, state and local government web resources and services.